User: anonymous   Login
Location: Sweet Grass
(48.9965°N, 111.9649°W)
Time: 00:19:41
(UTC+00:00)
Language:

DIWATA 2B (PO-101) - Orbit

View from above orbital plane
View from above orbital plane
View from above satellite
View from above satellite

Ground track
Ground track

The orbit data is extracted from the following two-line orbital elements,

1 43678U 18084H   24176.56840308  .00001517  00000-0  14307-3 0  9995
2 43678  98.0721 334.7724 0009169  14.4952 345.6529 14.95334744308028
Epoch (UTC): 24 June 2024 13:38:30
Eccentricity: 0.0009169
inclination: 98.0721°
perigee height: 575 km
apogee height: 588 km
right ascension of ascending node: 334.7724°
argument of perigee: 14.4952°
revolutions per day: 14.95334744
mean anomaly at epoch: 345.6529°
orbit number at epoch: 30802

The dashed part of the orbit path shows where the satellite is in the earth's shadow,  

DLR